Temp
31 30 30 29 29 29 28 28 28 28 27 27 26 26 25 25 25 25 24 24 24 24 24 24 25 25 24 25 25 25 24 24 24 25 25 24 24 23 23 23 22 23 23 23 22 21 22 22 22 22 22 22 22 22 22 22 22 22 22 21 21 22 22 22 22 22 23 23 23 24 23 23 22 22 23 24 24 24 23 23 24 24 23 23 22
32 31 30 30 29 29 28 28 28 28 27 27 26 26 25 25 25 25 25 24 24 25 25 25 25 25 25 25 25 25 25 25 25 25 25 25 24 23 23 23 23 23 23 23 22 22 22 22 22 22 22 22 22 22 22 22 22 22 21 21 22 22 22 22 21 22 23 24 23 24 24 23 23 23 24 24 24 24 24 24 24 24 23 23 23
31 31 30 30 30 29 29 28 28 28 28 27 26 26 25 25 25 25 25 25 25 25 25 25 25 25 25 25 25 26 26 26 26 26 25 24 24 23 23 23 23 23 23 23 22 22 22 22 22 22 22 22 22 22 22 22 22 21 21 21 22 22 22 22 21 21 23 23 23 24 24 25 23 23 24 24 24 24 25 24 23 23 22 22 22
31 31 31 31 30 30 29 28 28 28 28 27 27 26 26 25 25 25 25 25 25 25 24 25 25 24 24 25 25 25 26 26 25 25 25 24 24 23 23 23 23 23 22 22 22 22 22 22 22 22 22 22 22 22 22 22 22 21 21 21 21 22 23 23 21 21 22 22 23 24 24 25 24 23 24 24 24 25 25 24 23 22 22 21 22
31 31 31 31 31 30 29 29 28 28 28 28 27 27 26 26 25 25 25 25 25 25 24 24 25 24 24 24 24 25 25 25 25 25 25 24 24 24 23 23 23 23 23 22 22 22 22 22 22 22 22 21 21 22 22 22 21 21 21 21 21 22 23 23 22 21 21 21 22 23 24 24 24 24 24 23 24 25 24 23 23 22 22 21 21
31 31 31 32 31 31 30 29 29 29 28 28 28 27 26 26 25 25 25 25 25 25 24 24 24 24 25 25 25 25 25 25 25 25 25 25 25 25 24 23 23 23 23 23 23 22 22 22 22 22 22 22 21 22 22 22 22 21 21 21 21 21 21 22 23 22 21 21 21 22 22 23 23 24 24 23 23 24 23 23 22 22 22 21 22
31 31 31 32 31 31 30 29 29 29 29 28 28 27 27 26 26 25 25 25 25 25 24 24 24 25 25 25 25 25 25 25 25 25 26 26 25 25 25 24 23 23 23 23 23 22 22 22 22 22 22 22 22 22 22 22 22 21 21 21 21 21 21 22 23 22 22 21 21 21 21 22 22 22 23 23 23 23 23 23 23 22 22 22 22
32 31 31 32 32 31 30 29 29 29 29 28 28 28 27 26 26 25 25 25 25 25 24 24 25 25 25 25 25 25 26 26 25 25 25 25 25 25 25 24 23 23 23 23 23 22 22 22 22 22 22 22 22 22 22 22 22 21 21 21 21 21 21 21 22 22 22 22 22 21 21 21 21 21 22 22 22 23 23 24 24 24 24 23 23
33 32 32 32 32 31 30 30 29 29 29 29 28 28 27 26 26 26 25 25 25 25 25 24 25 25 25 25 25 25 25 26 26 25 25 25 25 25 24 24 23 23 23 23 23 22 22 22 22 22 22 22 22 22 22 22 21 21 20 20 20 20 20 20 21 21 22 22 22 21 22 21 21 22 21 21 22 22 23 24 24 24 24 24 23
33 33 32 32 32 31 30 30 29 29 29 29 28 28 27 27 26 26 25 25 25 25 25 25 25 25 25 25 25 25 25 25 26 26 25 25 24 24 24 24 23 23 23 23 22 22 22 22 22 22 22 22 22 22 22 21 21 21 20 20 20 20 20 20 21 21 21 21 21 21 21 22 22 22 22 22 23 22 22 24 25 25 24 24 23
33 33 33 33 32 31 31 30 30 30 29 29 28 28 27 27 26 26 25 25 25 25 25 25 25 25 25 25 25 25 25 25 25 25 25 25 24 25 24 24 23 24 23 23 22 22 22 22 23 22 22 22 22 22 22 22 22 21 21 20 20 21 21 20 20 21 21 21 21 21 21 22 22 23 23 23 23 23 23 23 25 25 24 24 23
33 32 33 33 32 32 31 31 30 29 29 29 28 28 28 27 26 26 26 25 25 25 25 25 25 25 25 25 25 25 25 25 25 25 25 25 24 25 24 24 24 23 24 23 23 23 23 22 22 23 22 22 22 22 22 22 22 22 21 21 21 21 21 21 21 21 21 21 21 22 22 22 22 22 22 22 22 22 22 23 24 24 23 23 23
33 32 32 32 32 32 32 31 30 29 29 29 29 28 28 27 27 26 26 25 25 25 25 25 25 25 25 25 25 25 25 25 25 25 25 25 25 25 24 24 24 24 24 23 23 23 23 22 22 22 22 22 22 22 22 21 21 21 21 21 21 21 21 21 21 21 21 21 21 22 22 22 22 22 22 22 22 22 22 22 23 23 23 23 22
34 33 33 32 32 32 32 31 30 29 29 29 28 29 28 27 27 26 26 26 25 25 25 25 25 25 25 25 25 25 25 25 25 25 25 25 24 24 24 24 24 24 24 23 23 23 23 22 22 22 22 21 21 21 21 21 21 21 21 21 21 21 21 21 21 21 21 21 21 21 22 22 22 22 22 22 22 23 22 22 22 22 23 23 23
34 33 33 32 32 32 32 31 30 29 29 29 28 28 28 27 27 26 26 26 25 25 25 25 25 25 25 25 25 25 25 25 25 25 25 25 24 24 24 24 24 24 24 23 23 23 22 22 22 22 22 21 21 21 21 21 21 21 21 21 21 21 21 21 21 21 21 21 21 21 21 22 22 22 22 22 22 22 22 22 21 21 22 23 23
34 34 33 33 32 32 32 31 30 30 29 29 29 28 28 28 27 26 26 26 26 25 25 25 25 25 25 25 25 25 25 25 25 25 25 24 24 24 24 24 24 24 23 23 23 23 22 22 22 22 21 21 21 21 21 21 21 21 20 20 21 21 21 20 21 21 21 21 21 21 21 21 21 21 21 21 21 21 21 21 20 20 21 21 22
34 34 33 33 32 32 32 31 31 30 30 29 29 28 28 28 27 27 26 26 26 25 25 25 25 25 25 25 25 25 25 25 25 25 24 24 24 24 24 24 24 24 23 23 23 22 22 22 22 22 21 21 21 21 21 21 21 21 21 21 21 21 21 20 20 21 21 21 21 21 21 21 21 20 20 21 20 20 20 20 20 20 20 20 21
35 34 33 33 33 32 32 32 31 31 30 29 29 28 28 27 27 27 26 26 26 26 26 25 25 25 25 25 25 25 25 25 25 25 24 24 24 24 24 24 23 23 23 23 23 22 22 22 21 21 21 21 21 21 21 21 21 21 21 21 21 21 20 20 20 20 21 21 21 21 21 21 21 20 20 20 20 20 20 20 20 20 20 20 20
35 34 34 33 33 32 33 32 32 31 30 30 29 28 28 28 28 27 27 27 26 26 26 26 25 25 25 25 25 24 25 25 25 24 24 24 24 24 24 24 23 23 23 23 22 22 22 21 21 21 21 21 21 21 21 20 20 20 20 20 21 20 20 21 21 21 21 21 21 21 21 21 21 20 20 20 20 20 20 20 20 20 20 20 20
35 35 34 33 33 33 33 33 33 32 30 30 30 29 29 28 28 28 27 27 27 27 26 26 26 26 25 25 25 24 24 24 24 24 24 24 24 24 24 23 23 23 23 22 22 22 22 22 21 21 21 21 21 20 20 20 20 20 20 20 21 21 21 21 21 21 21 21 21 21 21 21 20 20 20 20 20 20 20 20 20 20 20 20 20
35 35 34 34 34 34 34 33 33 32 31 31 30 30 30 29 28 28 28 27 27 27 27 26 26 26 25 25 25 24 24 24 24 24 24 24 24 24 24 23 23 23 22 22 22 22 22 21 21 21 21 21 20 20 20 20 20 20 20 20 21 21 21 21 21 21 21 21 21 20 20 20 20 20 20 20 20 20 20 20 20 20 20 20 20
35 35 35 35 34 34 34 33 33 32 32 31 31 31 30 30 30 29 29 28 28 28 27 26 26 26 25 25 25 25 24 24 24 24 24 24 24 24 23 23 23 23 22 22 22 21 21 21 21 21 21 20 20 20 20 20 20 20 20 21 21 21 21 21 21 21 21 21 21 20 20 20 20 20 20 20 20 20 20 20 20 20 20 20 20
35 35 35 35 34 34 34 33 32 32 32 31 31 31 31 31 30 30 29 29 29 29 28 27 26 26 25 25 25 25 24 24 24 24 23 24 24 23 23 23 23 23 22 22 22 21 21 21 21 20 20 20 20 20 20 20 20 20 20 21 21 21 21 21 21 21 21 21 21 21 20 21 21 21 20 20 20 20 20 20 20 20 20 20 20
35 35 36 35 34 34 33 32 32 32 31 31 31 31 31 31 31 30 30 30 30 29 29 27 26 26 26 25 25 25 24 24 24 24 23 24 24 23 23 23 23 23 23 23 22 21 21 21 20 20 20 20 20 21 21 20 20 20 20 20 21 21 21 21 21 21 21 21 21 21 21 21 21 21 21 20 20 20 20 20 20 20 20 20 20
34 34 35 34 34 33 32 31 31 31 31 31 30 31 31 31 31 31 31 30 30 30 29 28 27 26 26 25 25 25 25 25 25 24 24 24 24 24 23 23 23 23 23 22 22 21 21 21 21 20 20 20 20 21 21 20 20 20 20 20 21 20 21 21 21 21 21 21 21 21 21 21 21 21 21 21 21 21 21 20 20 20 20 20 19
33 33 34 33 33 31 31 31 31 30 30 30 30 30 31 30 30 31 31 31 30 30 29 29 27 27 26 25 25 25 25 25 25 24 24 24 25 24 23 23 23 23 23 22 22 22 21 21 21 21 20 20 21 21 21 20 20 20 20 21 20 20 21 21 21 21 21 21 21 21 21 21 21 21 21 21 21 21 21 20 20 20 20 20 19
32 33 32 32 31 30 30 30 30 30 30 30 30 30 30 30 30 30 31 30 30 29 29 29 28 28 26 26 25 25 25 25 24 24 24 24 25 24 24 23 23 23 23 22 22 22 22 21 21 21 21 21 21 21 21 21 20 20 20 21 20 20 21 21 21 21 21 21 21 21 21 21 21 21 21 21 21 21 21 20 20 20 20 20 19
32 32 31 31 31 30 30 30 30 30 30 30 30 30 30 29 29 30 30 30 30 29 29 28 28 28 27 26 25 25 25 25 24 24 24 24 25 24 23 23 23 23 23 23 22 22 22 21 21 21 21 21 21 21 21 21 21 20 20 20 20 21 21 21 21 21 21 21 22 22 22 22 21 21 21 21 21 20 20 20 20 20 20 19 19
32 31 31 31 30 30 30 29 30 30 30 30 30 29 29 29 29 29 29 30 29 28 28 28 27 27 27 26 25 25 25 25 24 23 23 24 24 23 23 24 24 23 23 22 23 23 22 21 21 20 21 21 21 21 21 21 21 20 20 21 21 20 20 21 21 21 21 22 22 22 22 22 21 21 21 21 21 20 20 20 20 19 19 19 19
33 32 31 31 30 30 30 29 30 30 30 30 30 29 29 29 29 29 29 29 29 28 28 27 27 27 26 26 25 25 25 25 24 23 23 23 22 22 23 24 24 23 23 23 23 23 22 21 20 20 20 20 20 21 21 21 20 20 20 21 20 20 21 21 21 21 22 22 22 22 22 21 21 21 21 20 20 20 20 19 19 19 19 19 19
34 33 32 31 31 30 30 29 29 30 30 30 29 29 29 29 29 29 28 29 28 28 27 27 27 26 26 26 25 25 25 24 24 23 23 22 22 22 24 24 23 23 23 23 23 22 21 19 19 20 20 20 20 21 21 21 21 21 21 20 20 21 21 21 21 22 21 22 22 22 22 21 21 20 20 20 20 20 20 19 19 18 18 18 18
34 33 32 31 31 30 29 29 30 30 30 29 29 29 29 29 29 28 29 28 28 28 27 26 27 26 26 26 25 25 24 24 23 23 23 22 21 22 23 23 22 22 22 22 22 20 19 19 19 20 20 20 20 21 21 21 21 21 21 21 21 21 22 22 21 22 21 22 22 22 21 21 20 20 20 19 19 19 19 19 18 18 18 17 17
34 33 32 31 31 30 30 30 30 30 30 29 29 29 29 29 29 28 28 28 28 28 27 26 26 26 26 25 25 25 24 24 23 23 23 22 21 21 22 21 20 21 21 21 20 19 19 19 19 19 19 20 20 20 20 20 21 21 21 21 21 21 22 22 22 22 22 21 21 21 21 20 20 20 19 19 19 19 19 18 18 17 17 17 17
34 33 32 31 31 31 30 30 30 30 30 29 29 29 29 28 28 28 28 28 27 27 27 27 26 26 25 25 25 25 25 24 23 23 22 21 21 21 21 20 19 19 20 20 19 18 19 19 19 19 19 19 19 19 20 20 21 21 21 21 21 21 21 22 21 21 21 21 21 20 20 20 20 20 19 19 19 19 18 18 18 18 18 18 18
34 33 32 31 31 31 30 30 30 30 30 29 29 29 29 28 28 27 27 27 27 27 27 27 26 26 25 25 24 25 25 24 23 22 22 21 21 20 20 19 19 19 19 19 18 18 19 19 19 19 19 19 19 19 20 20 21 22 22 21 21 20 21 21 21 21 21 20 20 20 19 19 19 19 19 19 18 18 18 18 18 18 18 18 18
33 32 31 31 31 31 31 30 30 30 29 29 29 29 29 28 28 27 27 27 27 27 27 26 26 26 25 25 24 25 24 23 22 22 22 21 21 20 19 19 18 18 18 18 18 19 19 19 19 19 20 20 20 20 20 20 21 22 22 21 20 20 20 21 21 21 20 20 19 19 19 19 19 19 18 18 17 17 17 17 17 18 18 18 18
33 32 31 31 30 31 30 29 29 30 30 30 30 30 29 28 27 27 27 27 27 27 26 26 26 25 25 24 24 25 24 23 22 22 22 21 20 20 19 18 17 17 18 18 18 18 19 19 19 19 20 20 21 21 21 21 21 22 22 21 20 20 20 21 21 20 19 19 18 18 18 18 18 18 18 17 17 16 16 16 17 17 18 18 18
33 32 31 30 30 30 30 29 30 30 30 29 29 29 28 28 27 27 27 27 27 27 26 26 25 25 24 24 24 25 24 23 22 22 22 21 20 20 19 18 17 18 18 18 18 18 19 19 19 20 20 21 21 21 21 21 21 21 22 21 20 20 21 20 20 19 18 18 18 18 18 17 17 18 17 17 16 16 16 16 17 17 17 18 18
32 32 31 30 30 30 29 29 29 28 28 28 28 28 28 27 27 27 27 27 27 26 26 25 25 24 24 24 24 24 24 23 22 22 22 21 21 20 19 17 17 18 18 18 19 19 20 20 20 21 21 21 22 22 21 21 21 21 21 20 20 20 20 19 19 18 17 17 17 17 18 17 17 17 17 16 16 16 15 15 16 17 17 17 18
32 32 30 29 29 28 29 29 28 27 27 27 27 28 28 27 27 27 27 27 26 26 25 25 24 24 24 24 24 24 23 23 22 22 22 21 21 20 19 18 18 18 19 19 20 20 20 21 21 21 21 21 22 22 21 21 20 20 20 19 19 19 19 18 18 17 17 17 17 17 17 17 17 16 16 16 16 15 15 15 15 16 16 17 17
31 30 29 28 28 28 28 27 26 26 26 27 27 27 27 26 26 27 27 26 25 25 24 24 24 23 24 24 24 23 23 23 22 22 21 21 20 20 19 18 19 19 20 20 20 21 21 21 21 21 22 22 21 21 21 21 20 20 19 19 18 18 18 18 18 17 17 17 17 17 18 17 16 16 16 16 16 15 15 14 14 15 15 15 15
28 28 28 28 28 27 27 26 26 26 26 27 27 26 26 26 26 26 25 25 24 23 23 23 23 23 23 24 24 23 23 22 22 21 21 20 20 20 20 20 20 20 20 20 20 20 21 21 21 21 21 21 21 20 20 20 19 19 19 18 18 18 18 18 18 17 17 18 18 18 18 17 16 16 15 15 15 15 15 14 14 14 14 14 13
28 28 28 28 27 27 27 27 27 26 26 26 26 26 26 26 25 25 24 23 23 23 23 23 23 23 23 23 23 22 22 22 22 21 20 20 20 20 20 20 20 20 20 20 20 20 20 21 21 21 20 20 20 19 19 19 19 18 18 17 17 17 18 18 17 17 17 18 18 18 17 16 16 15 15 15 15 14 14 14 14 14 14 13 13
28 28 27 27 27 26 26 26 25 25 25 26 26 25 25 25 24 23 23 23 22 22 23 23 23 23 22 22 22 22 22 21 21 20 20 20 20 20 20 20 20 20 20 21 20 20 20 21 21 21 20 19 19 18 17 18 18 17 17 17 17 17 18 17 17 18 18 18 18 18 17 16 15 15 14 14 14 14 14 14 13 13 13 13 13
28 27 26 26 26 25 25 24 24 24 24 25 25 25 25 24 23 22 22 22 22 22 22 23 23 22 22 22 22 21 21 21 20 20 20 20 20 20 20 20 20 20 20 21 21 21 21 21 21 20 19 19 19 18 16 16 17 16 16 16 17 17 17 17 17 18 18 18 17 17 16 15 15 14 14 13 13 13 13 13 13 13 13 13 13
27 26 26 26 26 25 25 24 24 24 24 24 25 25 24 23 22 22 22 22 22 22 23 23 23 22 21 21 22 21 21 21 20 20 20 20 20 20 20 20 20 20 21 21 21 21 21 21 21 20 19 18 19 18 16 16 16 16 16 16 16 16 16 16 16 16 16 16 16 15 15 14 14 13 13 13 14 14 13 13 13 12 13 13 14
26 26 26 27 27 27 26 25 24 24 25 25 25 24 23 22 22 23 22 22 22 22 23 23 23 22 21 21 21 21 20 20 20 20 20 20 20 20 20 20 20 21 21 21 21 21 21 21 21 20 19 18 18 18 18 17 16 16 16 16 16 16 15 15 15 16 16 15 15 14 13 13 13 13 13 13 14 13 13 13 13 13 13 14 14
25 26 26 27 27 27 26 25 24 24 25 25 25 24 23 23 24 23 22 22 22 22 23 23 22 22 21 21 21 20 20 20 20 20 20 20 20 20 20 20 20 21 21 21 21 21 21 21 21 20 19 18 18 18 19 19 18 17 17 16 16 16 15 15 16 17 17 16 15 14 14 14 13 13 14 14 14 14 14 14 14 14 14 14 14
25 25 25 25 26 25 25 25 24 24 24 24 25 25 24 24 24 23 22 22 22 22 23 23 22 22 21 21 20 20 20 20 20 19 18 19 19 19 19 19 19 20 20 20 20 21 21 21 21 20 19 18 19 19 19 20 19 18 18 18 17 17 17 17 17 17 16 16 16 16 16 17 17 17 16 16 16 17 16 16 15 15 14 14 14
25 25 24 24 24 24 24 24 24 24 24 24 24 24 24 24 23 22 22 22 21 22 23 23 23 22 22 21 21 21 21 21 20 18 18 18 18 18 18 18 18 19 19 19 19 20 20 20 20 20 19 19 19 20 19 19 18 18 18 18 18 18 18 17 17 15 15 16 17 18 19 19 19 19 18 18 18 18 18 17 16 15 14 14 14
25 25 24 24 24 24 24 23 23 23 23 23 23 23 23 23 23 22 22 22 21 22 23 24 24 24 23 22 22 21 21 20 19 18 18 18 17 17 18 18 18 18 18 18 19 19 19 19 19 19 19 19 19 19 18 18 17 17 17 17 17 17 16 16 15 14 15 16 18 19 19 20 19 18 18 18 18 18 17 16 16 16 15 15 14
Height
775 780 783 786 790 792 795 797 799 801 803 806 808 809 811 813 815 816 818 820 822 823 824 826 827 828 829 830 830 831 832 833 834 835 835 836 837 838 838 839 839 839 840 841 842 843 843 843 844 844 845 845 846 846 846 846 846 847 846 846 847 846 846 846 846 845 844 842 841 840 839 840 840 840 840 839 839 839 839 839 839 839 839 839 839
773 777 780 783 787 789 792 794 796 798 800 803 804 807 809 810 812 814 816 818 819 820 822 823 824 825 826 827 828 829 831 832 832 833 834 835 836 836 836 837 837 838 839 839 840 841 841 842 843 844 844 845 845 845 846 846 846 846 846 846 846 846 846 846 846 845 843 842 841 839 838 839 839 839 839 838 838 838 839 839 839 839 839 839 839
772 774 776 779 782 785 789 791 793 795 797 800 802 804 806 808 810 811 813 815 816 818 819 821 822 823 825 825 827 828 829 830 831 831 832 833 834 834 835 835 835 836 837 837 838 839 840 841 842 843 843 844 844 844 845 845 845 845 846 846 846 846 845 845 845 845 843 842 842 841 838 837 838 839 838 838 838 838 838 839 840 840 839 839 839
771 771 772 774 778 781 784 786 789 791 794 796 799 801 803 805 807 808 810 812 813 815 816 818 820 822 823 824 826 827 828 829 829 830 831 831 832 832 833 833 833 834 835 836 837 838 839 840 841 841 842 843 843 844 844 844 844 844 845 846 846 845 844 844 845 844 844 843 842 841 839 838 839 839 837 837 837 837 837 839 841 841 840 840 840
767 768 768 770 773 776 779 782 785 788 790 792 794 797 799 801 803 805 807 809 811 812 814 816 818 820 821 823 825 826 826 827 827 828 829 829 830 830 831 831 832 833 834 835 836 837 838 839 840 840 841 842 842 843 843 843 843 844 845 845 846 845 843 843 844 844 844 843 842 841 840 840 839 837 837 838 837 836 838 840 841 841 841 840 840
761 763 764 765 768 771 775 778 781 784 786 789 791 794 796 798 800 803 804 806 808 810 812 814 816 817 819 821 822 823 824 824 825 826 826 827 828 828 829 830 831 832 833 834 835 836 837 837 838 839 840 841 841 842 842 843 843 844 844 845 845 845 844 843 843 843 843 843 843 843 842 842 841 839 839 840 839 837 838 840 841 842 841 841 841
756 758 759 761 764 767 771 774 777 780 782 785 788 791 793 795 797 800 801 803 805 807 809 811 813 815 816 818 819 820 821 822 823 824 825 825 826 827 828 829 830 831 832 833 834 835 836 836 837 838 839 840 840 841 841 841 842 843 844 844 844 845 845 844 842 842 842 842 843 843 843 843 843 842 841 841 841 840 839 839 841 841 841 841 841
752 755 755 757 759 762 766 770 773 775 779 782 785 788 790 792 794 796 798 800 802 804 806 808 810 812 814 815 816 818 818 820 821 822 823 824 825 826 827 828 829 829 831 831 832 834 835 836 837 838 838 839 839 840 840 840 841 842 842 843 844 844 844 844 843 843 842 842 842 842 842 843 843 844 843 843 842 841 839 838 839 839 840 840 840
746 749 751 752 755 759 762 766 769 772 776 779 781 784 787 789 791 793 795 797 799 801 803 805 807 809 811 813 814 815 817 818 819 820 821 822 823 824 825 826 827 828 829 830 831 833 834 835 836 837 837 838 838 838 839 839 840 841 841 842 843 843 843 843 843 843 842 842 842 842 842 843 843 843 844 844 843 843 841 837 837 839 839 839 840
741 743 745 747 750 755 759 762 766 769 772 776 778 781 784 786 788 790 792 794 796 798 800 802 804 806 808 810 811 813 815 816 817 818 819 820 821 823 824 825 826 827 828 829 831 831 833 834 835 835 836 836 837 838 838 839 839 840 840 841 842 842 843 843 843 843 843 843 843 843 842 842 842 842 842 842 843 844 842 839 837 837 837 839 840
736 738 740 743 746 750 755 758 761 765 768 772 775 777 780 782 784 787 789 791 793 795 797 799 801 803 804 806 808 810 812 814 814 815 816 818 820 821 823 824 825 826 828 828 829 830 832 833 834 835 835 836 837 837 838 839 839 840 840 841 841 842 843 843 843 843 843 843 843 843 843 842 842 842 841 842 842 842 842 840 837 836 837 838 839
731 735 737 739 743 746 750 753 757 761 764 767 770 773 776 778 780 783 785 788 790 792 794 796 798 799 801 803 805 807 809 810 811 812 814 816 818 820 821 822 823 825 827 827 828 830 832 833 834 835 835 836 837 838 838 839 839 840 840 841 841 842 842 843 843 843 843 843 843 843 843 842 842 842 842 842 843 842 842 841 838 838 838 838 838
726 731 733 736 739 741 744 748 752 755 759 762 765 768 771 774 776 779 781 784 786 788 791 792 794 796 798 800 802 804 806 807 808 810 812 814 816 818 819 821 822 824 825 827 828 829 831 832 833 834 835 836 836 837 838 839 839 840 840 841 841 841 842 843 843 843 843 843 843 842 842 841 842 842 842 842 842 842 842 841 839 838 838 837 838
721 724 728 731 733 736 739 743 746 750 753 757 760 764 767 769 772 775 777 780 782 785 787 789 790 792 794 797 799 801 802 804 806 808 811 812 814 815 817 819 821 822 824 825 827 828 830 831 832 832 834 835 835 836 837 838 839 839 840 840 841 841 841 842 842 842 842 843 842 842 841 841 840 840 841 841 841 840 840 840 840 839 838 837 836
716 718 721 723 726 731 734 738 742 745 748 752 756 759 762 764 767 770 773 776 778 781 783 784 786 789 791 793 795 797 799 802 804 806 808 810 812 814 816 817 819 821 822 824 825 827 828 830 831 832 832 834 834 835 836 837 838 839 840 840 840 840 840 841 841 841 842 842 842 842 841 840 840 840 840 840 840 840 840 841 841 840 839 836 834
710 713 715 717 720 725 729 733 737 740 744 747 750 754 756 759 762 765 769 772 774 777 778 780 783 786 788 789 792 794 797 799 801 804 805 807 810 812 814 816 817 819 821 822 824 825 827 829 830 831 831 833 834 835 836 837 838 838 839 839 839 839 840 840 840 840 840 840 840 841 840 840 839 839 839 839 840 840 840 840 840 840 840 837 834
705 707 709 711 714 718 722 727 731 735 739 742 745 748 751 755 758 762 766 768 771 772 774 777 780 782 784 786 789 791 794 796 798 801 803 805 808 810 812 814 815 817 818 820 822 824 826 827 828 829 830 831 832 834 835 836 837 838 838 838 838 838 839 839 839 839 839 839 839 839 839 839 839 839 838 838 838 839 839 839 839 839 839 838 836
701 701 704 707 708 712 716 720 725 728 733 736 740 743 747 751 754 758 761 764 766 768 770 773 776 778 781 783 786 788 791 793 795 798 800 802 805 807 809 811 812 815 817 819 821 823 824 825 827 828 829 830 831 832 833 835 836 836 837 837 837 837 838 838 838 838 838 838 838 838 838 838 838 838 837 837 837 838 838 838 838 838 837 837 836
698 698 701 703 704 707 710 715 719 723 728 731 736 740 744 747 750 753 756 758 762 765 767 770 772 775 777 780 783 786 788 790 793 795 797 799 802 804 806 809 811 813 815 818 819 821 823 824 825 827 828 830 831 831 832 833 834 835 835 835 835 836 836 837 837 837 837 837 837 837 837 837 837 837 836 836 836 836 836 836 836 836 836 835 835
693 694 697 697 699 701 704 709 714 718 723 727 732 736 739 743 746 749 752 755 758 761 763 766 768 771 774 777 780 782 784 787 789 792 794 796 799 801 804 806 808 810 812 815 817 820 821 822 823 824 826 828 830 830 830 830 831 833 833 833 834 834 835 835 836 836 836 836 836 836 836 836 836 835 835 835 835 835 835 834 835 834 834 833 833
689 689 691 692 694 697 700 706 709 714 719 723 727 731 734 739 742 745 748 751 753 756 758 761 764 767 770 773 776 778 781 783 786 788 790 793 795 797 800 802 804 806 809 812 815 818 819 819 819 819 821 824 826 827 827 827 829 830 830 831 832 833 834 834 834 835 835 835 835 835 834 834 834 834 833 833 833 833 833 832 832 832 831 831 831
685 685 686 688 691 693 697 702 706 710 714 718 723 727 730 734 737 740 744 746 748 751 754 757 760 763 766 769 772 774 777 779 782 784 786 789 792 794 796 799 801 804 806 809 811 814 816 816 816 816 816 818 820 823 824 825 826 827 828 829 830 831 832 832 833 833 833 833 833 832 832 832 832 831 831 831 831 831 830 830 830 829 829 828 828
680 681 683 684 687 690 694 699 703 706 710 715 719 722 726 730 733 736 738 740 744 747 750 753 756 759 762 765 768 770 773 775 778 780 782 786 789 791 794 796 799 802 804 806 807 809 812 812 813 814 813 814 815 818 821 823 824 825 826 826 827 828 829 830 830 830 830 830 830 830 830 829 829 829 829 829 829 828 828 827 827 827 826 825 825
678 679 679 681 684 687 692 696 700 704 707 712 715 718 722 726 729 732 733 736 740 743 747 749 752 755 758 761 764 766 769 771 773 775 778 781 785 787 790 793 796 798 800 802 804 805 807 809 810 811 811 812 812 813 816 820 823 823 823 824 824 825 827 827 828 828 828 828 828 827 827 827 827 827 826 826 826 826 825 825 824 824 823 822 822
679 679 679 681 683 686 689 692 696 701 705 708 712 716 719 722 725 727 729 732 736 739 743 745 748 751 754 757 759 761 764 766 768 770 773 777 780 782 785 788 791 794 796 798 799 801 803 805 806 807 809 810 810 810 811 815 820 822 821 821 821 822 823 824 825 825 825 826 826 825 825 825 825 824 824 824 824 823 823 822 821 821 820 820 819
680 680 680 682 683 685 688 690 694 698 702 706 709 713 716 718 721 723 725 729 732 736 738 741 744 747 749 752 754 756 759 761 763 766 769 772 776 778 780 783 786 789 791 793 795 796 798 800 801 803 805 808 808 809 809 811 816 819 819 819 819 819 820 821 822 822 823 823 823 823 823 823 823 822 822 822 821 821 820 819 819 818 817 817 816
678 679 680 681 683 685 686 688 692 695 699 703 706 709 712 715 717 720 723 726 729 732 735 738 740 743 746 748 750 752 754 757 760 763 766 768 772 775 776 779 783 785 787 788 790 791 793 795 796 797 801 804 806 807 808 809 812 816 817 817 817 818 818 818 819 820 821 821 821 821 820 820 820 820 820 820 819 819 818 817 816 815 815 814 813
676 678 679 680 682 683 684 687 689 693 697 700 703 706 709 711 714 717 720 723 726 729 732 735 738 740 743 745 747 750 752 755 759 761 763 766 769 772 776 779 781 781 781 782 783 785 788 790 792 793 795 799 802 804 805 806 808 811 814 815 815 815 816 816 817 817 818 818 818 818 818 818 818 818 818 817 817 816 815 814 814 813 812 811 810
674 675 676 678 679 680 682 684 686 690 694 697 700 703 705 709 712 714 718 721 724 727 730 732 735 737 740 742 745 748 751 755 758 759 761 764 767 770 775 778 777 776 777 777 778 780 783 786 789 791 793 795 797 800 802 804 806 808 810 812 812 812 813 813 814 814 814 815 815 815 815 815 815 815 815 815 814 814 813 812 812 811 810 809 808
669 670 671 674 676 677 679 682 684 687 690 693 696 699 702 706 709 712 716 719 722 725 727 730 732 735 738 740 743 745 749 752 755 757 759 762 764 767 770 771 770 770 772 773 774 776 779 782 786 790 792 793 794 796 799 803 805 806 808 809 810 810 810 810 811 811 811 811 811 812 812 812 812 812 812 812 811 811 811 810 810 809 808 807 806
664 665 666 669 673 675 676 679 681 683 686 689 692 695 699 703 706 710 713 716 719 722 725 727 730 733 736 739 741 743 746 749 752 754 756 758 760 762 764 764 764 765 767 769 771 775 777 780 785 789 791 791 792 794 797 800 803 804 806 807 807 807 807 807 808 808 808 808 808 809 808 808 809 808 808 808 808 808 808 807 806 806 805 805 804
659 660 661 665 668 671 672 674 676 679 682 685 689 693 697 700 703 707 710 714 717 719 722 725 727 731 733 736 739 741 743 747 749 751 753 754 756 758 760 760 760 761 763 766 770 774 777 780 783 786 788 789 790 792 795 798 800 801 803 804 804 804 804 804 805 805 806 806 806 806 806 805 806 805 805 806 805 805 805 804 803 803 802 802 801
655 655 657 660 662 664 667 669 672 675 679 682 686 690 693 697 700 704 708 711 714 717 720 722 725 728 730 732 736 738 740 744 746 747 749 751 752 754 756 757 758 760 761 764 768 772 776 779 781 783 786 787 789 791 794 796 798 799 800 800 801 801 801 801 802 803 803 804 804 804 803 803 803 803 803 803 803 803 802 802 801 800 799 798 798
652 652 653 656 659 661 663 666 670 673 676 681 684 688 692 695 699 703 706 709 712 714 717 720 722 725 727 729 732 735 738 741 743 745 747 748 749 750 752 754 756 759 761 763 766 770 774 777 779 781 783 785 787 790 793 794 795 795 797 797 797 798 798 799 799 800 801 801 802 802 801 801 801 801 801 801 801 801 800 800 799 798 797 795 794
650 650 652 654 656 658 661 664 668 672 675 679 683 686 691 694 697 701 704 706 709 712 715 718 720 722 724 727 729 732 736 738 740 743 745 746 747 748 749 752 755 759 761 762 765 769 772 776 778 780 781 783 785 788 790 791 791 792 793 794 795 795 796 797 797 798 799 800 800 800 800 800 800 800 800 799 799 799 798 798 797 796 795 793 792
646 648 650 651 653 656 659 662 666 670 674 678 681 685 689 692 695 699 702 705 708 710 713 716 718 720 723 725 727 731 733 736 738 741 742 744 746 746 748 752 755 757 759 762 765 767 770 774 776 778 780 781 783 785 786 786 787 789 790 792 793 794 794 795 796 797 797 798 798 799 799 799 799 799 798 797 797 797 797 796 795 794 792 791 789
640 643 646 648 652 655 659 663 665 669 672 676 680 683 687 690 694 697 700 703 706 709 711 714 717 719 721 724 726 729 731 734 736 739 741 743 745 746 748 751 753 754 757 760 763 766 769 772 774 776 778 778 779 781 782 783 784 786 787 789 790 791 792 793 794 795 795 795 796 797 797 797 798 797 796 795 795 796 795 794 793 792 790 789 787
636 640 643 646 649 653 658 662 665 668 671 674 678 682 685 689 692 696 699 702 704 707 710 713 716 718 720 723 725 727 730 732 735 737 740 742 743 745 747 749 750 752 755 759 761 764 768 770 771 773 774 774 775 777 779 780 781 782 783 785 788 789 790 791 792 793 793 793 794 794 794 795 796 795 794 793 794 794 793 792 791 790 788 787 786
634 638 642 645 647 650 656 661 664 667 670 672 676 680 683 688 691 695 698 700 703 706 709 712 715 717 719 722 724 726 728 731 733 736 738 741 742 744 746 748 749 751 754 757 760 763 766 767 768 769 770 771 772 774 775 777 777 779 780 782 785 786 787 788 789 790 791 791 792 792 791 791 793 793 792 792 792 792 791 790 789 788 786 785 784
632 636 641 644 646 649 654 659 663 666 668 671 675 679 683 687 691 694 696 698 701 705 708 711 713 716 718 721 722 725 727 729 732 735 737 740 741 743 746 747 749 751 754 757 759 761 763 764 765 765 766 768 769 771 772 773 775 776 778 780 782 783 784 785 785 786 787 788 789 789 788 788 789 790 790 790 790 789 789 788 787 786 785 784 783
633 638 643 645 647 649 653 658 661 664 667 670 674 678 683 687 690 692 694 696 700 703 706 709 712 715 718 719 721 724 726 728 731 733 736 738 741 743 745 747 748 751 753 755 756 758 759 761 762 763 764 765 767 768 769 770 772 774 775 777 779 779 780 781 782 783 785 785 785 786 786 786 786 787 788 788 787 787 786 785 785 784 783 782 782
637 642 646 646 648 652 655 659 661 664 668 671 674 678 683 687 689 691 693 696 699 702 704 707 711 714 716 718 720 722 724 727 730 732 734 737 739 741 744 745 747 748 750 752 754 755 757 758 759 761 762 763 764 766 767 768 770 771 772 774 776 776 778 779 780 782 782 782 783 784 784 784 784 785 786 785 785 784 783 782 782 781 781 780 780
639 644 647 648 651 654 657 660 663 667 670 673 676 680 683 686 689 691 694 697 699 701 703 706 710 713 715 717 719 722 724 726 728 731 733 736 738 740 742 743 745 746 748 750 751 753 755 756 757 759 760 761 763 764 764 765 766 768 770 771 773 775 776 778 779 779 780 780 781 782 782 782 783 783 783 783 782 781 781 780 780 780 779 779 779
641 645 648 651 654 658 661 664 667 670 673 676 679 681 684 686 689 692 695 697 699 701 703 706 709 712 715 717 719 721 724 726 728 731 733 734 736 738 740 742 744 745 746 748 749 751 752 753 755 757 758 759 761 761 762 763 764 766 768 769 771 773 774 776 777 778 779 779 780 780 780 781 782 782 781 781 780 780 779 779 778 778 778 777 777
645 649 652 654 657 661 664 668 671 673 675 678 681 683 685 687 690 693 695 698 700 702 703 706 709 712 714 716 719 721 724 726 728 731 732 733 735 737 739 741 742 743 744 745 747 749 750 751 753 755 757 759 760 761 761 761 763 765 767 768 770 771 772 774 775 776 777 778 778 779 779 780 780 780 779 779 778 778 777 777 777 776 776 776 775
651 654 656 658 659 662 665 669 673 675 677 679 682 684 685 687 690 693 696 698 700 702 703 706 709 711 714 716 718 721 724 727 729 730 731 732 734 736 737 739 740 741 742 743 745 746 748 750 752 754 756 758 759 761 761 761 762 764 765 766 768 769 771 773 774 775 776 776 777 778 778 778 778 778 778 778 777 776 776 775 775 774 774 774 774
656 658 660 660 661 663 665 668 672 675 677 680 682 684 686 688 691 694 696 698 699 701 703 706 708 711 714 716 719 722 725 727 729 730 731 732 733 735 736 737 738 738 739 741 743 745 747 749 751 752 754 756 758 760 761 761 761 763 764 764 766 768 769 771 773 774 774 775 776 776 776 777 776 776 776 775 775 775 774 774 773 773 773 773 772
659 661 662 663 664 666 668 670 672 675 678 681 683 685 688 690 692 694 695 697 699 701 703 706 708 711 714 716 719 722 724 726 728 730 731 732 733 734 735 736 737 737 738 740 742 744 746 748 749 751 752 755 757 759 759 759 759 761 762 763 764 766 768 769 771 772 773 774 775 775 775 775 775 775 774 773 773 774 774 773 773 772 771 771 771
661 664 665 666 668 670 671 673 675 677 680 683 684 687 689 690 692 694 695 697 699 701 703 705 708 711 714 717 719 721 723 725 727 729 730 731 732 734 735 736 736 737 738 740 741 743 745 746 747 749 750 753 755 756 756 756 757 759 760 762 763 765 766 767 768 769 771 773 773 772 772 772 771 771 771 771 771 770 770 771 772 771 770 769 768
664 667 669 670 672 673 675 677 679 680 682 684 686 687 689 691 693 694 696 697 699 700 702 705 708 711 714 716 718 720 722 724 726 728 729 731 732 734 735 736 736 737 738 740 741 742 744 745 746 747 749 750 752 752 753 754 756 757 759 760 761 763 764 765 766 767 769 770 769 768 767 766 766 767 767 768 767 766 766 767 768 769 769 768 767
667 668 670 672 674 676 678 680 682 683 684 685 686 688 690 692 693 695 696 698 699 701 702 704 706 708 711 715 716 718 721 723 725 727 729 731 732 734 734 735 736 737 738 739 740 741 742 744 745 746 747 748 750 751 752 754 755 756 758 759 760 762 763 764 765 766 767 767 766 764 763 762 764 765 765 765 765 765 765 766 766 766 766 765 765
Wind_Speed
17 21 22 23 22 21 21 20 20 20 19 19 20 20 20 19 19 19 19 19 19 18 18 18 17 16 15 15 15 14 14 13 13 13 12 11 9 9 9 8 9 10 10 9 9 9 8 6 4 4 3 4 3 3 4 4 4 5 5 4 3 4 4 3 4 5 5 5 5 4 1 1 2 1 1 1 2 2 2 3 4 4 5 5 5
15 18 21 23 22 22 22 21 21 21 21 21 21 21 21 20 20 20 19 20 21 20 19 18 18 17 16 16 16 15 14 14 13 13 13 11 10 10 10 10 10 11 9 9 10 10 8 6 5 5 4 4 3 3 3 4 5 5 4 3 2 3 3 2 3 5 5 4 5 4 1 2 4 2 1 1 2 2 2 3 5 5 5 6 5
15 17 20 24 24 24 23 21 22 22 22 21 21 21 21 21 21 20 20 20 21 21 20 19 18 17 16 15 14 14 13 13 13 12 11 11 10 10 11 11 12 11 10 9 9 10 8 6 6 5 5 4 3 3 3 5 5 4 3 2 3 3 2 1 1 3 4 4 3 3 2 1 4 3 2 2 2 2 2 4 6 6 6 6 5
16 17 19 22 25 25 24 23 23 22 22 22 22 22 21 21 21 20 20 21 21 21 21 20 18 17 16 15 13 13 12 11 12 12 11 11 11 11 11 12 11 11 10 9 9 9 9 7 6 5 5 4 3 3 4 5 5 4 2 1 3 4 3 0 1 2 3 4 3 2 2 3 1 1 1 1 1 1 2 5 6 5 6 6 5
17 18 18 20 23 26 26 25 23 23 23 22 23 22 21 21 21 21 20 20 20 20 21 20 18 18 17 15 14 13 13 13 13 14 13 12 12 12 12 12 11 10 10 10 9 9 9 8 6 6 5 4 3 3 4 4 3 3 2 1 2 4 3 1 0 1 1 2 3 2 2 2 2 3 2 1 1 0 4 6 6 5 5 5 5
17 18 18 19 22 26 26 26 24 24 24 23 23 22 21 21 21 22 20 20 21 20 21 20 19 19 18 16 16 15 15 15 14 14 13 12 12 11 10 10 10 10 10 10 9 9 9 9 7 6 4 4 3 3 3 3 2 3 2 2 2 2 2 2 1 0 0 1 1 2 3 3 4 4 3 1 0 2 4 5 5 4 4 5 4
17 18 19 19 22 24 25 26 26 25 25 24 23 23 22 21 22 23 21 20 20 20 21 20 19 19 19 18 17 16 15 15 15 14 12 11 10 10 10 10 10 10 10 10 10 10 10 9 7 5 4 4 4 4 4 4 3 3 3 2 2 2 2 3 2 1 1 1 1 1 2 2 3 4 3 2 1 2 2 2 3 3 3 4 4
17 17 19 19 21 24 25 27 27 28 27 25 24 23 23 23 22 23 22 21 20 21 21 21 20 19 19 19 18 17 17 15 14 14 13 12 11 10 10 9 10 11 10 11 11 11 10 8 7 6 5 4 4 5 5 4 3 3 4 4 4 3 3 3 2 1 1 1 1 1 1 2 2 2 3 3 2 1 1 3 1 1 1 3 4
17 17 18 19 21 25 26 27 28 28 27 25 24 24 23 24 23 23 23 21 21 21 22 23 22 20 19 20 19 18 17 16 14 14 13 13 12 11 10 10 10 10 11 11 11 11 10 9 8 7 5 5 5 6 5 4 4 4 5 5 4 4 3 2 2 1 2 2 1 1 1 0 1 1 1 2 3 3 1 1 1 1 1 0 2
18 18 18 19 23 26 26 27 27 27 27 26 25 23 23 23 23 23 23 22 21 22 24 24 23 21 20 21 21 19 18 17 16 15 14 13 13 12 11 11 11 10 10 11 12 11 11 10 9 7 6 6 7 6 5 5 4 5 5 5 4 4 3 3 3 2 2 2 2 2 1 1 1 2 2 2 2 3 3 4 4 3 2 2 1
17 18 18 20 24 26 26 26 26 27 27 26 25 24 23 23 23 24 24 23 22 23 25 25 24 23 22 22 22 21 19 18 17 17 15 14 13 13 12 12 12 12 11 11 12 12 11 11 9 7 7 8 7 6 5 4 4 4 4 4 4 3 3 3 3 3 2 3 3 2 2 2 2 2 3 4 4 4 4 5 6 5 5 4 3
17 17 17 18 21 23 25 25 26 26 26 26 26 25 24 24 24 24 25 24 23 23 25 25 24 24 24 23 23 22 22 21 19 19 17 16 15 13 13 13 12 13 12 11 12 12 12 12 9 8 8 8 7 6 5 4 3 3 3 3 3 3 3 3 3 3 3 3 3 3 3 3 3 3 3 4 4 5 5 6 7 7 6 6 5
17 16 16 16 17 19 22 25 26 26 26 27 27 26 25 24 25 25 25 25 24 24 24 25 25 24 24 24 23 22 23 22 21 19 18 17 16 14 14 14 13 14 13 12 13 13 13 12 9 9 9 8 7 7 5 3 2 3 3 3 3 3 3 3 3 4 4 4 4 4 4 4 4 4 5 5 5 5 6 6 8 8 8 8 8
16 16 16 16 16 17 21 25 25 26 27 27 27 27 25 24 25 26 26 26 26 25 25 26 26 26 25 25 23 22 22 22 22 20 18 17 16 15 15 14 13 14 14 13 14 14 13 12 10 10 10 9 8 7 6 4 3 3 3 3 3 3 3 3 3 3 4 4 5 5 5 5 5 5 5 6 7 7 7 7 8 9 9 10 10
16 17 18 18 18 20 22 24 25 26 27 28 27 27 25 24 26 27 26 26 26 26 26 26 26 26 26 26 24 23 22 21 21 20 18 17 16 15 15 14 13 13 14 14 14 14 13 11 10 10 10 9 8 8 7 6 5 5 4 4 4 4 4 4 3 4 4 5 5 6 6 6 6 6 6 7 7 8 8 8 8 7 8 9 9
17 17 18 19 19 22 23 24 25 25 27 28 27 27 27 26 26 27 27 27 27 27 28 27 26 26 26 26 25 23 21 20 20 20 18 18 17 15 14 14 14 13 13 14 15 14 13 12 11 11 10 10 9 8 8 7 6 6 6 5 5 5 5 5 5 5 6 6 7 7 7 8 7 7 7 7 8 8 8 9 8 8 7 7 8
17 16 17 19 19 21 24 25 25 26 27 28 28 29 29 27 26 27 27 27 27 29 29 27 26 25 26 27 25 23 22 21 20 20 19 18 17 16 15 15 15 15 14 15 15 14 13 13 12 11 11 10 10 10 9 8 7 7 7 6 6 6 6 6 6 6 7 7 8 8 9 9 8 8 8 8 8 9 9 9 10 10 9 8 7
17 17 17 18 18 20 24 26 26 27 28 29 29 29 29 28 27 27 28 28 28 29 29 27 26 26 25 25 25 24 23 22 21 20 19 18 18 18 17 16 16 16 15 14 14 14 14 13 12 11 11 11 11 11 10 8 8 8 7 7 7 7 7 7 7 8 8 8 8 9 9 9 9 9 9 9 9 9 10 10 11 11 11 10 9
16 16 15 16 17 20 24 26 27 28 28 29 30 28 27 27 28 28 30 31 30 28 27 27 26 26 24 24 25 24 23 22 21 20 20 20 20 19 18 17 16 16 15 15 15 15 14 14 12 11 10 11 12 11 9 9 9 8 8 7 7 8 8 8 8 8 8 8 8 9 9 9 9 9 9 9 10 10 11 11 11 12 12 12 12
15 16 16 17 18 21 25 27 27 28 28 28 28 28 28 28 28 28 29 30 30 28 27 27 27 26 23 22 24 24 24 23 22 22 22 23 21 20 19 18 17 18 17 17 16 15 15 15 14 13 11 12 12 11 11 10 10 10 10 9 8 8 9 9 8 8 8 8 9 9 10 10 9 9 10 10 10 10 11 12 12 13 13 12 13
15 15 16 17 17 20 25 27 27 27 27 27 27 28 28 28 27 29 29 29 30 30 29 27 27 26 24 23 24 25 25 24 23 24 24 23 22 23 24 21 20 21 20 18 17 17 17 17 17 17 17 16 15 15 14 13 12 12 11 10 9 9 9 9 9 10 10 10 10 11 12 11 11 11 12 12 11 11 11 12 12 13 14 13 12
14 15 15 16 16 17 21 24 25 25 26 26 26 26 27 27 27 28 29 29 30 30 28 27 25 25 24 25 25 25 25 24 24 24 24 24 25 27 27 23 21 21 20 19 19 20 21 21 21 20 21 22 20 18 17 15 14 14 13 11 10 10 10 11 11 11 12 12 12 13 13 13 12 12 13 12 12 12 12 13 13 13 15 15 14
13 14 14 14 14 15 19 22 24 24 24 25 25 25 26 27 27 27 28 30 30 29 27 26 24 24 25 25 24 24 25 25 25 25 26 26 24 25 27 26 22 21 22 24 23 24 25 25 22 21 24 25 23 20 18 17 17 16 14 13 11 11 12 12 12 13 13 13 13 14 14 13 12 12 12 12 12 13 13 13 14 14 15 16 15
12 13 12 12 13 15 16 18 20 22 22 24 24 24 24 25 26 26 28 30 29 27 26 25 24 25 25 25 24 25 25 26 26 26 28 28 24 23 27 28 23 22 26 28 26 26 28 27 24 24 26 27 24 23 21 19 18 17 16 14 13 13 13 14 14 14 14 14 14 14 13 13 12 12 12 12 12 13 13 14 14 14 15 16 16
11 12 12 13 14 14 14 15 18 21 22 22 23 24 24 24 26 26 27 28 27 26 25 24 24 25 25 25 26 26 26 28 28 26 27 29 26 24 27 28 26 25 28 29 28 28 30 29 28 27 28 28 26 25 24 20 18 18 17 16 15 15 15 15 14 15 15 15 14 14 13 12 12 12 12 12 12 12 13 14 14 14 14 15 15
11 12 13 13 13 14 14 14 17 21 21 22 23 23 24 24 25 26 25 25 25 25 25 24 23 24 25 26 27 27 27 29 28 26 26 28 27 26 27 29 28 28 29 30 30 32 33 32 31 30 29 29 27 26 25 22 18 18 19 19 17 16 15 15 15 15 16 16 15 15 14 13 13 13 12 12 12 12 13 14 14 14 15 15 15
11 12 12 13 13 15 15 16 18 21 21 22 23 23 23 23 25 26 24 22 22 23 24 23 22 23 24 26 27 27 27 27 26 26 26 28 28 27 27 28 28 29 31 30 30 34 35 34 34 32 31 30 28 26 25 22 20 20 21 20 17 16 16 15 16 16 16 16 16 15 14 14 14 13 13 13 13 13 14 14 15 14 14 15 15
11 12 14 15 15 15 16 16 18 21 22 21 22 23 23 23 23 24 23 21 20 21 22 22 21 21 22 23 25 25 24 23 22 23 24 27 27 25 24 26 29 32 33 32 35 39 38 37 36 33 31 30 29 27 25 24 23 22 20 18 16 16 16 16 16 16 16 17 16 15 15 15 15 15 15 15 14 14 14 14 15 15 15 16 17
14 15 15 15 15 15 16 16 18 20 22 22 22 22 22 22 21 21 21 20 19 19 20 21 20 20 20 20 21 21 20 20 21 21 24 25 24 25 25 29 34 36 35 35 38 40 38 38 37 33 31 31 30 29 28 25 23 20 18 18 18 17 17 17 16 16 17 17 16 16 16 16 16 17 18 19 18 17 17 17 16 15 16 17 18
15 15 15 16 15 15 16 16 17 20 22 22 22 22 23 22 21 20 20 20 19 19 19 20 20 20 19 18 19 20 20 22 22 23 24 24 25 29 31 35 39 40 40 40 40 40 39 37 33 29 29 30 29 29 28 25 23 19 17 17 18 17 17 16 16 16 17 16 16 16 16 17 19 20 22 23 22 20 20 19 18 17 17 18 18
14 15 15 15 15 15 16 17 18 20 23 23 22 22 22 21 20 20 20 20 19 18 18 19 19 18 18 18 19 19 20 22 23 24 24 24 27 33 36 37 40 43 43 41 41 39 33 28 26 26 27 28 29 28 26 26 26 23 19 18 17 16 15 15 16 17 16 16 16 16 16 17 18 19 19 19 19 20 20 20 19 18 18 18 18
14 14 15 16 17 18 18 19 19 22 23 23 21 21 20 20 20 20 19 19 19 18 17 18 17 17 17 18 19 18 18 21 23 24 24 24 28 36 39 39 40 43 44 41 38 34 27 24 25 24 24 25 27 26 24 26 27 24 21 21 18 16 15 14 15 16 16 15 15 14 15 16 16 16 15 14 14 17 18 19 18 17 16 17 18
14 14 15 17 17 17 18 18 20 22 24 23 22 21 20 21 20 19 19 18 19 18 17 17 17 16 16 18 19 18 18 20 22 22 22 23 27 35 41 37 30 33 41 41 33 27 25 26 24 20 19 19 20 22 25 27 26 22 21 21 19 16 15 14 15 15 15 15 14 13 13 14 13 14 14 13 12 14 16 16 17 16 17 17 17
12 13 14 15 14 14 16 19 20 22 22 21 21 19 18 18 18 18 18 18 18 17 17 16 15 15 16 17 18 17 18 19 20 20 21 22 25 32 40 37 26 25 33 34 27 21 22 23 22 20 20 18 16 18 24 26 25 22 20 21 20 18 16 15 15 15 14 14 13 12 12 12 12 11 12 11 11 12 13 14 15 16 17 16 16
11 12 13 14 14 14 15 18 19 20 20 20 19 18 17 17 17 17 18 18 17 16 15 14 15 15 15 16 16 16 16 16 19 22 22 22 24 28 33 33 27 24 24 23 20 19 19 20 20 19 19 19 18 20 23 24 23 22 21 22 21 19 17 16 16 15 14 13 12 11 11 11 11 11 11 13 12 11 11 12 14 15 15 15 15
11 12 12 13 14 15 16 18 19 19 19 18 18 18 17 17 17 17 16 16 15 15 14 14 14 14 14 14 14 15 15 16 20 23 22 21 23 24 26 25 24 24 22 17 16 17 18 17 18 18 18 19 20 21 22 22 22 22 22 23 21 19 17 16 15 13 12 10 9 8 7 9 10 11 13 16 15 12 11 12 14 14 15 14 14
12 13 14 15 16 16 16 17 19 20 19 18 18 18 17 16 16 15 14 14 14 13 13 13 13 13 13 13 13 14 14 16 19 23 23 20 21 23 24 23 24 26 23 18 17 17 17 17 17 18 20 21 21 20 19 20 20 21 22 22 19 17 16 16 13 10 9 9 8 7 8 9 10 12 15 17 16 14 12 12 13 14 14 14 14
12 13 15 18 19 19 18 18 18 19 18 18 18 18 16 15 14 14 13 14 13 12 12 12 12 12 12 12 12 13 14 15 18 22 23 20 21 23 23 22 24 25 22 19 19 17 17 18 20 22 23 23 22 19 18 19 19 20 22 21 17 16 15 13 9 7 7 8 9 11 13 12 12 14 16 17 16 15 13 12 12 13 13 14 13
13 15 15 17 20 20 20 19 18 18 18 19 19 18 16 14 14 14 14 13 12 12 12 11 11 12 12 11 11 12 14 15 17 21 23 21 21 24 22 20 22 22 19 19 19 18 19 21 23 24 23 22 20 17 16 17 18 20 21 19 15 14 11 8 6 5 6 8 10 14 16 16 16 16 17 17 16 15 13 11 11 12 12 12 11
14 16 17 18 20 21 21 20 18 18 19 20 19 17 15 14 14 14 13 13 12 12 11 11 11 12 12 11 10 11 13 14 14 18 21 20 19 21 20 20 21 20 18 18 19 19 20 21 20 20 20 19 18 16 15 17 18 18 18 17 15 12 11 11 10 8 8 9 11 13 15 16 16 16 16 16 16 15 13 11 11 11 11 12 11
14 16 17 18 19 19 19 18 18 18 19 19 18 17 15 15 15 14 14 14 14 13 13 12 12 12 11 11 11 11 12 13 13 15 18 18 17 18 19 19 19 20 19 18 18 18 19 18 17 16 16 15 15 14 14 16 18 17 16 17 17 14 15 15 12 9 9 10 11 12 12 14 14 14 14 15 14 14 14 12 11 11 12 14 13
16 15 15 16 16 17 18 17 17 18 17 17 18 17 16 15 15 14 14 15 15 15 14 14 13 12 11 11 11 11 12 13 12 13 16 16 16 18 19 18 18 18 18 17 17 16 15 14 14 13 12 11 12 13 14 15 16 17 18 20 19 16 17 15 11 11 13 13 12 10 10 12 14 13 14 14 14 13 12 10 10 9 10 10 10
16 15 15 16 16 16 17 17 16 16 15 16 17 16 15 14 15 15 14 15 15 15 15 14 13 12 11 11 11 11 12 12 12 14 17 17 15 17 18 17 16 15 16 16 16 15 14 13 11 10 10 10 10 11 14 17 18 17 19 21 19 16 15 12 11 13 14 12 11 9 10 13 15 14 13 12 10 9 8 7 7 7 7 9 9
16 17 18 18 16 16 16 15 14 14 13 13 14 15 15 15 15 14 14 15 15 14 15 14 12 12 11 11 11 11 12 12 12 14 17 18 16 16 16 15 15 14 15 15 15 14 13 11 8 8 8 9 8 8 12 16 17 16 17 20 18 15 13 12 12 11 10 10 10 10 11 14 14 13 11 9 8 7 6 6 6 7 9 9 8
16 17 18 18 17 17 16 14 13 12 12 12 12 14 16 16 14 14 14 14 14 14 14 13 11 11 10 10 10 11 12 12 12 14 17 17 17 16 15 14 14 14 15 15 13 13 11 8 7 8 8 8 8 9 10 12 14 14 15 17 17 15 13 14 13 9 9 11 11 12 14 14 13 10 8 6 6 6 5 6 7 8 9 8 8
15 15 15 17 18 18 17 16 13 11 11 12 12 13 15 15 14 14 13 13 14 13 12 11 10 10 10 10 10 11 12 13 12 13 15 15 16 16 15 14 14 14 15 14 12 11 10 8 6 8 8 7 7 8 8 9 12 16 16 16 16 14 13 14 14 10 11 13 13 13 13 11 9 8 6 5 7 8 8 9 9 7 7 7 7
13 12 13 14 14 14 15 16 14 12 11 12 12 13 14 15 14 14 13 14 13 13 11 10 9 9 10 10 10 10 11 12 12 12 13 14 15 15 14 13 13 15 15 13 11 9 9 7 6 7 8 8 8 9 8 8 11 14 15 14 14 13 14 14 13 11 10 11 10 9 8 7 7 7 6 7 9 10 10 9 8 6 6 7 7
14 13 13 13 12 12 13 13 13 12 11 11 12 12 13 13 13 13 14 14 13 12 11 10 9 9 10 10 10 10 10 10 11 10 10 11 12 13 12 11 12 13 12 11 9 8 8 7 5 6 9 10 10 11 11 10 10 11 11 12 12 13 13 12 11 10 8 8 8 6 5 5 6 6 7 7 8 7 8 8 8 7 7 8 8
14 14 14 14 13 12 12 12 12 11 11 11 11 11 12 12 12 12 13 13 13 12 11 10 9 9 10 10 10 10 10 10 10 8 8 9 10 11 11 10 9 9 10 9 8 7 6 6 5 7 11 13 13 14 13 13 12 13 13 12 13 13 12 11 12 11 9 8 10 9 8 8 9 9 9 9 9 9 9 9 9 8 8 8 8
14 14 14 14 13 12 12 12 10 9 9 10 10 10 10 10 11 11 11 12 13 11 10 10 10 9 10 10 10 10 11 10 10 10 9 9 9 10 11 10 9 10 12 12 11 8 6 5 5 7 11 12 11 12 14 15 16 17 17 16 16 15 13 12 12 12 10 10 10 10 10 11 11 10 10 10 10 10 9 9 9 9 8 7 7
13 13 13 13 12 11 11 10 9 8 8 9 9 9 9 9 9 9 9 11 11 10 9 10 9 9 11 11 10 11 11 10 9 9 10 9 8 9 11 11 12 14 14 14 13 11 9 9 7 5 8 10 8 8 10 12 15 18 19 18 17 16 15 14 12 10 10 10 10 11 11 11 10 10 10 10 9 8 7 7 7 8 7 6 6
Wind_Direction
193 192 195 196 198 199 199 200 200 202 202 203 204 206 205 204 205 207 207 206 207 208 208 210 212 215 218 220 222 220 220 222 226 229 229 231 222 215 231 243 247 256 261 252 235 229 223 208 194 195 212 225 230 250 273 289 289 283 285 294 310 313 314 324 338 328 312 314 317 296 248 189 186 191 284 313 329 348 6 11 13 18 27 26 26
191 189 192 195 198 199 199 200 200 200 201 203 205 206 206 206 207 208 208 207 209 210 210 211 213 214 216 218 222 223 222 225 229 231 231 233 223 220 232 240 249 257 255 238 222 217 210 193 189 196 209 221 232 260 286 292 283 279 286 292 297 296 299 317 332 316 309 336 329 298 249 174 185 204 294 318 336 351 15 29 24 20 27 21 15
192 190 190 194 197 198 198 200 201 201 202 203 205 206 206 207 208 209 210 210 211 211 211 212 213 214 217 220 225 229 229 229 232 233 232 231 224 220 228 238 246 245 234 220 210 209 204 194 198 205 215 222 229 266 288 282 268 260 265 287 294 275 266 297 333 317 328 343 311 290 315 237 186 194 267 299 355 352 14 39 30 22 30 26 12
194 193 193 194 195 197 198 199 200 201 202 202 203 203 204 205 206 207 209 211 212 211 211 213 213 214 218 223 228 233 236 233 234 236 234 231 227 225 231 236 237 232 223 216 210 209 205 201 206 214 224 224 227 276 283 266 249 230 214 245 280 275 269 288 24 335 341 336 309 294 290 267 194 134 283 289 259 254 45 45 39 34 36 34 26
196 197 197 195 196 197 199 200 200 201 202 203 202 202 202 203 202 204 206 209 212 211 211 211 211 214 218 222 227 231 235 233 232 234 233 232 234 233 233 232 229 225 220 217 214 210 207 207 212 222 228 225 236 279 274 252 237 214 191 190 253 286 303 319 360 336 346 338 325 315 276 267 8 6 344 330 283 12 72 58 48 50 47 43 41
199 199 199 198 199 199 200 200 201 203 204 204 204 203 202 201 201 202 204 208 210 210 209 208 209 214 215 216 220 222 225 226 227 232 231 232 236 232 228 226 224 221 220 221 216 208 208 211 216 221 223 227 248 263 244 232 219 193 180 187 222 271 304 304 301 333 329 326 333 332 326 343 356 332 320 4 50 85 94 85 65 59 59 59 54
202 201 200 200 200 200 200 200 201 204 205 205 205 204 202 200 200 201 204 206 208 208 207 206 209 213 215 216 219 220 222 225 226 231 233 232 232 229 226 224 221 219 219 222 216 208 209 215 217 214 216 231 242 227 214 212 203 188 181 194 212 222 258 283 304 338 323 348 15 348 345 360 358 338 332 353 106 123 123 123 102 98 97 83 70
203 201 201 201 199 199 200 199 201 205 205 203 204 204 202 201 200 201 203 205 206 205 204 205 209 212 214 218 221 223 225 227 226 228 231 229 228 229 229 227 222 219 220 219 215 212 214 217 211 203 212 227 219 207 204 198 192 187 186 193 205 212 232 268 299 323 302 331 10 331 8 32 11 6 353 327 315 319 168 177 151 72 94 91 83
204 202 201 200 199 199 199 199 201 204 204 203 203 203 202 201 201 201 203 204 205 205 205 208 211 211 214 218 221 223 226 229 228 227 227 226 227 230 228 226 222 220 222 221 218 216 215 212 203 199 213 218 206 202 198 193 192 190 190 193 203 213 223 243 249 266 285 299 317 288 320 16 326 335 300 297 311 309 280 233 295 297 261 341 81
205 206 202 199 198 198 198 199 200 202 203 203 202 202 201 200 201 201 204 205 205 206 209 211 211 211 214 218 220 221 223 226 228 227 225 224 227 229 227 225 219 220 225 223 220 214 209 210 205 204 213 209 202 201 196 194 196 194 195 197 206 220 225 232 239 243 270 288 279 265 283 276 279 288 269 278 303 291 291 294 287 275 276 282 242
201 204 203 200 198 196 197 198 199 199 200 200 199 200 200 199 200 202 205 205 204 206 210 211 210 211 214 216 219 220 220 222 225 224 221 220 224 227 227 224 219 221 224 222 218 209 205 213 213 211 211 203 200 201 200 203 202 194 192 196 202 217 232 240 248 253 262 277 279 274 282 286 293 298 296 309 307 294 295 294 294 307 312 294 257
196 199 201 199 198 196 196 196 197 196 195 196 198 199 199 199 199 201 203 204 204 205 209 210 208 210 214 215 217 219 220 221 223 223 220 220 224 225 224 222 220 220 219 218 215 207 206 213 215 213 208 202 202 202 202 210 213 199 193 203 208 216 237 249 253 260 268 276 284 283 279 281 280 275 283 289 286 293 306 301 300 307 303 296 293
193 194 196 196 196 196 195 194 194 193 193 194 196 198 199 198 198 200 202 203 204 205 207 209 209 210 213 214 215 217 219 221 223 224 224 224 226 223 221 220 219 218 215 213 213 208 207 210 210 209 205 202 204 201 202 211 221 225 219 224 226 225 232 243 254 264 270 274 282 284 278 275 267 261 266 269 265 271 281 286 296 303 299 300 303
194 192 192 194 196 194 193 193 192 192 192 192 194 197 197 196 197 199 202 203 204 205 207 209 210 211 213 214 214 214 216 219 223 226 226 226 225 221 218 218 219 219 213 208 208 205 205 207 208 208 204 202 203 202 207 217 224 229 231 233 231 229 230 234 251 265 270 273 277 278 278 275 270 266 263 265 269 271 275 284 295 298 294 296 298
195 193 192 192 192 191 192 193 192 191 191 192 194 194 195 196 197 198 201 202 203 204 206 209 210 211 212 214 214 214 215 217 221 226 224 221 220 215 214 216 219 219 211 203 201 200 202 207 209 209 206 204 206 206 210 218 225 226 228 234 234 231 231 233 244 257 263 266 267 269 273 273 272 273 271 268 275 280 282 287 289 290 292 295 297
195 196 195 192 188 189 192 192 192 191 191 192 192 192 195 196 196 197 200 201 202 204 207 209 209 209 211 213 213 212 212 214 218 221 218 214 215 212 210 213 215 213 205 200 198 199 202 206 208 209 207 205 206 208 212 220 225 226 226 231 235 234 232 236 243 250 256 262 265 265 266 271 273 274 275 273 274 278 277 278 279 280 287 294 296
196 197 196 193 188 188 191 191 191 191 192 193 192 192 195 195 195 196 199 200 202 205 208 208 207 209 211 212 211 209 208 210 213 212 209 209 212 212 211 212 211 207 201 199 199 199 202 205 206 206 205 205 204 204 211 222 226 227 229 231 235 238 238 242 246 251 254 258 263 266 267 271 275 273 275 277 277 277 276 276 275 274 280 290 297
198 198 197 194 190 189 190 191 191 191 192 192 192 193 194 194 195 195 196 200 203 205 207 207 205 207 209 209 208 207 207 208 208 206 205 205 208 210 211 210 207 204 200 199 198 198 201 202 203 204 205 205 203 200 206 218 225 228 231 232 233 238 243 247 249 251 255 257 259 264 268 272 275 276 277 279 276 273 271 271 271 271 273 277 284
199 198 196 195 194 192 190 191 192 192 191 191 192 193 193 195 196 196 198 202 203 204 206 206 205 207 208 206 205 206 206 205 205 202 202 207 210 208 206 205 203 200 197 195 195 196 198 199 202 205 205 205 203 203 205 210 218 224 228 230 230 233 241 246 250 252 253 256 257 261 266 270 274 278 278 278 273 269 268 267 266 267 267 266 271
199 197 196 195 196 195 192 191 191 191 191 192 192 193 195 196 196 198 200 202 203 204 205 205 206 206 205 202 202 203 203 203 201 200 204 210 209 203 201 200 196 195 195 194 195 195 197 199 199 198 198 202 203 206 207 204 211 221 222 225 227 230 239 245 251 255 256 257 260 262 265 267 269 272 273 274 272 269 267 265 264 264 263 261 262
197 197 198 196 195 195 194 192 191 190 190 192 193 194 197 197 197 198 200 201 204 205 205 205 205 204 201 199 200 200 202 201 200 203 208 208 205 206 206 200 194 197 196 192 191 195 200 201 198 194 195 198 200 206 209 203 208 220 220 220 225 230 240 247 251 257 260 262 264 263 264 266 268 268 268 269 270 270 269 266 263 261 261 260 257
196 197 198 195 194 194 192 191 191 190 190 192 193 195 196 197 198 200 201 204 207 207 205 205 203 201 200 200 199 199 200 200 200 202 204 205 210 213 208 199 195 197 194 189 189 195 202 204 202 200 197 197 200 206 210 207 208 217 219 217 222 229 239 247 252 257 262 264 265 263 264 266 266 265 265 267 268 268 269 268 265 263 265 265 259
197 198 199 195 193 190 187 188 190 191 191 190 192 194 196 197 198 200 203 206 208 207 205 203 201 199 199 199 198 197 199 199 200 200 201 206 210 207 205 203 196 193 195 197 197 199 205 207 206 205 203 201 202 204 209 213 213 214 215 216 220 227 238 246 252 258 261 264 265 262 262 262 260 260 261 264 267 268 270 269 268 267 267 269 265
198 198 197 192 188 184 184 185 188 190 189 189 191 193 194 196 199 201 205 207 208 207 205 202 200 200 198 197 196 197 199 200 201 201 202 205 203 198 204 205 195 192 201 204 202 204 208 207 206 209 209 207 203 199 202 212 220 219 216 217 221 228 238 246 253 260 261 261 261 259 258 257 255 256 257 260 265 267 269 269 269 271 270 271 270
196 197 193 189 184 180 180 181 183 185 187 188 189 191 193 196 200 203 206 207 206 205 204 201 201 201 197 195 197 198 199 201 203 202 200 201 200 196 199 199 192 192 199 201 202 205 207 208 210 212 213 210 205 199 197 205 220 226 222 222 225 231 239 246 253 259 258 256 254 253 253 252 252 253 254 260 267 270 272 274 275 277 275 274 273
191 192 191 189 183 179 178 178 179 182 184 185 186 190 193 196 201 205 207 206 204 204 203 202 201 201 197 196 197 199 202 204 204 201 197 196 198 195 192 193 192 192 197 200 203 205 206 209 211 211 212 211 207 202 200 204 216 228 231 233 234 234 240 247 253 257 254 250 248 247 248 249 248 251 255 263 271 275 276 279 282 284 282 279 276
185 187 188 186 183 181 179 176 177 180 182 183 186 189 192 196 201 205 206 205 203 202 202 202 203 202 198 197 199 201 204 205 202 200 195 195 199 195 189 189 191 193 197 199 200 204 207 211 211 207 207 210 208 207 205 208 219 233 239 240 238 237 242 249 254 255 250 246 246 246 249 250 248 251 258 265 272 275 277 280 283 285 283 280 277
181 186 189 188 186 182 180 178 177 180 181 182 186 190 192 196 200 202 204 203 200 199 200 202 204 204 200 199 201 203 204 204 201 198 197 198 197 188 181 188 195 198 198 197 200 205 207 210 211 206 203 206 208 210 210 212 222 234 238 238 238 239 245 252 254 252 247 245 247 249 251 252 252 255 258 262 269 272 275 279 282 283 282 279 279
183 187 191 194 192 184 180 180 178 179 181 182 187 190 192 196 198 199 201 200 198 197 200 202 203 205 204 201 202 203 205 208 205 198 196 196 185 174 182 203 209 205 201 200 204 207 206 208 211 208 205 206 208 212 215 217 223 229 232 237 242 243 245 250 251 247 244 244 246 250 253 255 256 257 257 260 267 270 271 274 277 280 280 279 280
190 188 189 196 196 187 180 178 178 180 182 184 187 190 192 194 195 196 197 197 197 197 199 202 204 206 205 204 205 205 207 210 208 201 197 191 180 181 198 216 216 208 204 205 207 208 207 206 207 208 208 209 210 213 217 221 226 230 231 238 245 244 244 246 245 243 243 243 244 248 253 257 259 260 262 264 269 270 269 271 274 277 278 277 280
199 191 187 191 194 187 180 179 180 181 182 184 186 187 189 191 192 193 194 194 195 196 199 203 206 206 205 208 210 208 206 207 205 203 199 191 187 193 205 217 217 209 207 208 208 208 204 198 200 207 213 215 215 216 219 225 233 239 242 245 247 245 244 245 243 242 242 243 246 249 255 261 264 264 265 268 270 270 271 276 280 279 276 272 274
202 191 185 187 190 186 181 180 181 181 182 183 182 181 184 187 188 189 190 191 194 197 200 204 207 206 203 209 213 208 205 205 204 205 203 195 193 199 206 214 215 210 208 207 207 205 198 191 197 208 215 218 220 220 223 231 238 244 249 253 251 245 245 246 242 241 242 243 249 253 258 267 269 264 262 264 266 269 276 283 284 280 274 269 269
203 192 186 188 189 186 182 180 180 181 183 181 179 179 182 184 184 183 185 188 192 197 201 203 206 204 200 206 211 208 206 207 207 207 204 195 192 199 206 210 210 208 208 206 202 200 196 195 200 208 214 219 222 225 231 238 242 246 251 255 251 241 242 246 242 241 242 244 251 256 260 267 267 262 262 262 261 268 276 280 280 279 279 276 276
206 195 189 187 187 184 180 178 180 181 180 178 178 178 177 177 178 178 181 186 189 194 199 202 203 202 199 200 203 204 207 207 204 204 201 195 194 199 205 207 205 206 206 201 194 190 192 199 207 213 219 223 225 231 238 242 245 248 250 253 249 239 239 245 243 244 247 249 252 255 258 263 263 262 265 263 264 272 277 277 276 277 279 279 280
204 195 187 181 181 181 175 175 178 177 173 171 173 173 172 173 175 177 180 184 187 190 195 199 200 198 199 196 194 201 207 200 196 200 201 201 201 199 201 205 206 205 200 191 186 186 190 201 210 215 222 226 227 232 239 243 246 249 249 253 251 241 238 243 245 248 252 253 253 252 252 259 264 268 268 263 265 274 278 279 278 278 280 282 282
195 190 184 178 178 176 170 167 167 166 166 168 171 173 172 172 174 177 178 180 184 188 191 196 197 193 194 192 190 199 203 194 196 201 202 204 206 200 197 201 203 199 193 185 186 190 193 202 210 216 223 228 230 233 236 241 248 250 249 252 251 241 238 245 248 249 251 252 254 256 260 269 272 273 270 267 269 274 275 277 279 279 282 283 283
187 183 177 170 166 165 164 162 161 163 166 168 170 170 167 166 169 173 175 176 180 186 188 191 191 187 187 187 190 200 198 190 196 202 201 204 206 200 197 200 200 196 192 191 193 198 204 210 214 218 224 231 234 234 234 242 250 250 247 247 242 233 236 243 242 242 243 241 249 263 275 282 280 274 269 268 273 278 276 276 277 279 282 283 283
178 174 168 164 162 160 160 161 161 160 159 158 160 159 155 156 162 166 169 171 175 181 183 184 183 180 179 181 191 204 200 190 195 202 203 206 205 199 196 198 196 192 191 194 197 202 212 219 221 223 226 233 235 233 235 246 253 250 245 239 230 227 233 235 225 218 226 235 253 269 276 277 272 268 267 267 272 276 274 273 274 278 280 282 284
164 163 163 159 154 149 149 153 151 146 144 145 147 149 148 149 155 161 164 164 167 172 175 175 174 171 172 177 189 202 202 196 198 202 205 207 205 201 197 194 190 186 186 194 199 205 215 223 228 229 230 232 234 234 238 246 251 248 241 230 222 223 221 206 192 202 229 251 267 275 278 272 262 259 262 265 270 272 269 267 271 276 278 278 284
156 154 151 144 139 139 143 146 142 137 137 139 141 143 145 146 151 157 156 154 157 162 163 162 161 163 167 172 183 196 202 200 198 199 204 207 204 199 195 190 188 189 194 200 203 210 219 225 230 231 228 226 229 235 242 247 247 245 236 220 213 211 195 185 196 214 229 248 260 266 268 262 254 253 259 265 268 269 267 266 267 272 275 275 281
137 136 138 136 134 136 137 136 135 134 134 136 138 140 140 143 148 149 145 145 149 151 150 149 150 157 165 170 179 190 196 199 197 193 196 202 203 197 190 186 188 194 199 203 205 212 220 223 224 224 222 223 229 238 247 248 244 241 228 210 202 199 194 195 203 213 223 238 252 255 252 247 247 254 261 264 267 269 270 267 261 261 264 266 273
117 122 131 132 127 123 119 119 123 127 130 134 136 134 137 142 144 139 137 140 143 142 141 142 146 154 164 172 179 183 187 193 194 186 186 193 199 197 193 192 194 195 196 201 207 211 214 214 215 216 220 228 238 241 241 240 241 238 225 209 200 199 203 205 208 220 234 247 254 253 249 247 251 259 264 265 267 268 267 262 256 257 262 268 278
114 115 116 112 107 105 106 110 116 119 125 132 133 132 135 137 132 129 133 135 136 137 138 140 144 152 161 170 174 177 181 186 190 190 189 190 191 193 195 197 199 198 199 204 208 205 202 205 206 210 221 231 237 237 232 232 238 235 218 206 201 202 210 213 212 220 234 246 249 246 248 252 257 264 267 265 262 258 255 257 261 268 282 292 295
104 103 101 99 96 97 100 102 106 111 117 124 128 128 127 124 123 127 131 131 133 137 138 139 144 151 159 164 167 173 181 183 188 195 194 190 188 190 191 191 195 201 202 203 202 197 196 202 201 199 211 222 226 229 231 232 233 223 207 200 200 204 212 211 207 216 233 242 243 241 242 249 258 264 262 256 248 243 247 261 273 284 292 295 292
93 95 98 101 103 103 102 100 101 106 108 112 119 122 119 118 121 127 129 131 135 136 135 136 141 148 155 159 162 172 183 188 191 195 194 191 189 190 189 187 192 201 200 195 193 191 190 191 190 188 197 213 223 226 225 223 216 203 196 197 200 206 210 204 202 216 237 238 240 243 245 252 260 258 251 253 255 251 259 274 281 286 286 280 274
90 94 101 109 112 112 110 107 106 106 105 105 108 112 113 116 122 127 129 132 133 131 130 133 138 143 151 158 162 173 185 192 194 194 194 193 191 190 191 193 195 199 197 191 186 185 184 184 187 187 188 199 215 218 212 204 198 194 196 201 204 207 208 203 202 218 235 238 243 248 250 253 253 241 233 243 252 257 269 280 284 281 268 259 262
79 83 93 101 105 108 110 109 106 102 99 98 98 102 110 118 125 129 130 130 129 128 128 132 137 143 150 159 166 173 184 192 193 194 195 197 196 194 195 199 201 200 196 190 184 182 187 193 195 186 178 181 200 212 212 201 190 190 196 202 204 205 205 202 205 217 231 237 244 253 256 248 241 240 236 233 240 254 266 272 268 254 247 252 261
73 74 80 84 84 87 92 95 96 95 95 96 97 104 115 123 127 129 129 128 127 128 129 132 137 142 150 163 171 174 181 188 190 192 194 194 196 200 202 206 209 204 196 190 188 191 200 211 213 182 170 178 194 205 208 203 193 188 191 194 196 196 196 202 210 215 219 222 227 246 269 252 239 250 249 234 233 248 262 267 260 248 247 253 259
72 69 72 77 80 82 84 86 89 91 96 100 103 111 120 124 124 126 128 128 130 132 131 132 137 141 151 167 173 173 181 184 172 166 174 178 183 196 204 207 206 200 195 194 196 202 210 224 223 187 177 188 200 203 202 199 195 194 193 190 193 195 195 204 216 216 216 223 228 241 258 253 247 254 253 243 240 249 260 266 263 259 260 259 260
77 76 74 75 77 81 84 87 89 93 99 103 105 111 118 121 123 128 131 130 133 136 133 135 144 151 156 169 176 175 183 182 160 151 162 168 169 185 197 198 194 196 202 206 211 216 217 213 205 185 184 191 194 195 199 201 202 203 200 194 196 200 201 210 221 221 222 230 235 244 256 258 257 259 257 253 257 264 267 265 260 256 255 258 267
80 80 79 77 76 78 81 85 88 92 96 100 103 109 114 117 120 126 130 129 133 139 139 145 157 154 150 164 175 169 169 168 153 153 168 168 164 181 198 205 206 207 211 216 221 222 212 199 189 177 187 193 186 182 195 203 205 205 203 200 201 205 208 218 224 218 218 227 237 249 262 264 259 257 255 255 262 267 262 256 259 258 254 258 273